Regional Weather Roundup
Issued by NWS

Home | Current Version | Previous Version | Text Only | Print | Product List | Glossary On
Versions: 1 2 3 4 5 6 7 8 9 10 11 12 13 14 15 16 17 18 19 20 21 22 23 24 25 26 27 28 29 30 31 32 33 34 35 36 37 38 39 40 41 42 43 44 45 46 47 48 49 50
000
ASUS44 KBMX 220210
RWRAL

ALABAMA REGIONAL WEATHER ROUNDUP
NATIONAL WEATHER SERVICE BIRMINGHAM AL
900 PM CDT THU AUG 21 2014

NOTE: "FAIR" INDICATES FEW OR NO CLOUDS BELOW 12,000 FEET
WITH NO SIGNIFICANT WEATHER AND/OR OBSTRUCTIONS TO VISIBILITY.

THE REMARK "TC" DENOTES TEMPERATURE IN DEGREES CELSIUS.

ALZ001>011-014-016>018-020-220300-
NORTH ALABAMA

CITY           SKY/WX    TMP DP  RH WIND       PRES   REMARKS
MUSCLE SHOALS  CLEAR     79  73  82 CALM      30.09S
HUNTSVILLE     CLEAR     82  74  76 CALM      30.09R
DECATUR        CLEAR     79  74  84 CALM      30.09R
HALEYVILLE     FAIR      77  75  93 CALM      30.14R
GADSDEN        CLEAR     77  72  83 CALM      30.10R
$$

ALZ012-013-022-023-030>036-040>044-220300-
WEST CENTRAL ALABAMA

CITY           SKY/WX    TMP DP  RH WIND       PRES   REMARKS
TUSCALOOSA     CLEAR     84  76  76 CALM      30.08R HX  93
$$

ALZ015-024>027-033>036-040>044-220300-
CENTRAL ALABAMA

CITY           SKY/WX    TMP DP  RH WIND       PRES   REMARKS
BIRMINGHAM     PTCLDY    85  70  60 CALM      30.12R
MONTGOMERY     MOCLDY    84  77  79 NW3       30.09R HX  94
SHELBY CO ARPT MOCLDY    81  73  76 CALM      30.10R
MAXWELL AFB    MOCLDY    82  78  88 CALM      30.09R HX  91
GREENVILLE     FAIR      82  77  84 CALM      30.11R HX  90
$$

ALZ019-021-028-029-037-038-045>048-220300-
EAST CENTRAL ALABAMA

CITY           SKY/WX    TMP DP  RH WIND       PRES   REMARKS
ANNISTON       PTCLDY    76  72  87 CALM      30.12R
ALEXANDER CITY MOCLDY    82  75  80 CALM      30.13R
AUBURN         MOCLDY    81  72  74 CALM      30.17R
$$

ALZ051>064-220300-
SOUTHWEST ALABAMA

CITY           SKY/WX    TMP DP  RH WIND       PRES   REMARKS
MOBILE         PTCLDY    81  77  88 SW5       30.11F
BROOKLEY FIELD CLEAR     83  77  82 W5        30.12R HX  92
EVERGREEN      CLEAR     82  79  90 CALM      30.11R HX  92
$$

ALZ049-050-065>069-220300-
SOUTHEAST ALABAMA

CITY           SKY/WX    TMP DP  RH WIND       PRES   REMARKS
DOTHAN         CLOUDY    77  74  90 CALM      30.16R
OZARK          CLOUDY    80  73  79 CALM      30.12R
TROY           CLOUDY    82  77  84 CALM      30.12R HX  90
EUFAULA        FAIR      79  73  82 CALM      30.11R
$$



USA.gov is the U.S. government's official web portal to all federal, state and local government web resources and services.